TimeEEST,TemperatureF,Dew PointF,Humidity,Sea Level PressureIn,VisibilityMPH,Wind Direction,Wind SpeedMPH,Gust SpeedMPH,PrecipitationIn,Events,Conditions,WindDirDegrees,DateUTC
12:20 AM,66.2,60.8,83,29.86,6.2,NE,3.5,-,N/A,,Scattered Clouds,40,2012-10-08 21:20:00
12:50 AM,66.2,60.8,83,29.86,6.2,NE,3.5,-,N/A,,Scattered Clouds,50,2012-10-08 21:50:00
1:20 AM,68.0,60.8,78,29.86,6.2,NNE,4.6,-,N/A,,Scattered Clouds,20,2012-10-08 22:20:00
1:50 AM,68.0,60.8,78,29.86,6.2,NNW,5.8,-,N/A,,Scattered Clouds,340,2012-10-08 22:50:00
2:20 AM,66.2,60.8,83,29.86,6.2,North,4.6,-,N/A,,Scattered Clouds,350,2012-10-08 23:20:00
2:50 AM,66.2,60.8,83,29.86,6.2,North,4.6,-,N/A,,Scattered Clouds,10,2012-10-08 23:50:00
3:50 AM,66.2,60.8,83,29.86,6.2,NE,5.8,-,N/A,,Scattered Clouds,40,2012-10-09 00:50:00
4:20 AM,66.2,60.8,83,29.83,6.2,NE,6.9,-,N/A,,Scattered Clouds,40,2012-10-09 01:20:00
4:50 AM,68.0,60.8,78,29.83,6.2,NNE,6.9,-,N/A,,Scattered Clouds,20,2012-10-09 01:50:00
5:20 AM,68.0,60.8,78,29.86,6.2,NNE,6.9,-,N/A,,Scattered Clouds,30,2012-10-09 02:20:00
5:50 AM,68.0,60.8,78,29.86,6.2,North,6.9,-,N/A,,Mostly Cloudy,10,2012-10-09 02:50:00
6:20 AM,68.0,60.8,78,29.86,6.2,ENE,4.6,-,N/A,,Mostly Cloudy,70,2012-10-09 03:20:00
7:20 AM,68.0,62.6,83,29.86,6.2,NNE,4.6,-,N/A,,Mostly Cloudy,20,2012-10-09 04:20:00
7:50 AM,69.8,60.8,73,29.89,6.2,NNE,8.1,-,N/A,,Mostly Cloudy,20,2012-10-09 04:50:00
8:20 AM,69.8,59.0,68,29.89,6.2,NNE,8.1,-,N/A,,Mostly Cloudy,20,2012-10-09 05:20:00
8:50 AM,71.6,60.8,69,29.89,6.2,NNE,6.9,-,N/A,,Mostly Cloudy,20,2012-10-09 05:50:00
9:20 AM,73.4,60.8,65,29.89,6.2,NE,6.9,-,N/A,,Mostly Cloudy,40,2012-10-09 06:20:00
9:50 AM,73.4,60.8,65,29.89,6.2,North,6.9,-,N/A,,Mostly Cloudy,10,2012-10-09 06:50:00
10:20 AM,75.2,60.8,61,29.89,6.2,NE,5.8,-,N/A,,Mostly Cloudy,50,2012-10-09 07:20:00
10:50 AM,75.2,60.8,61,29.89,6.2,NNE,4.6,-,N/A,,Mostly Cloudy,20,2012-10-09 07:50:00
11:20 AM,77.0,60.8,57,29.89,6.2,North,4.6,-,N/A,,Mostly Cloudy,350,2012-10-09 08:20:00
11:50 AM,77.0,62.6,61,29.86,6.2,North,4.6,-,N/A,,Mostly Cloudy,10,2012-10-09 08:50:00
12:20 PM,78.8,60.8,54,29.86,6.2,Variable,3.5,-,N/A,,Mostly Cloudy,0,2012-10-09 09:20:00
12:50 PM,78.8,62.6,57,29.86,6.2,Variable,3.5,-,N/A,,Mostly Cloudy,0,2012-10-09 09:50:00
1:20 PM,80.6,62.6,54,29.86,6.2,Variable,2.3,-,N/A,,Mostly Cloudy,0,2012-10-09 10:20:00
1:50 PM,80.6,62.6,54,29.83,6.2,Variable,3.5,-,N/A,,Mostly Cloudy,0,2012-10-09 10:50:00
2:20 PM,78.8,62.6,57,29.83,6.2,South,5.8,-,N/A,,Mostly Cloudy,170,2012-10-09 11:20:00
2:50 PM,80.6,60.8,51,29.83,6.2,South,6.9,-,N/A,,Mostly Cloudy,170,2012-10-09 11:50:00
3:20 PM,80.6,60.8,51,29.83,6.2,South,9.2,-,N/A,,Mostly Cloudy,190,2012-10-09 12:20:00
3:50 PM,78.8,60.8,54,29.83,6.2,South,11.5,-,N/A,,Mostly Cloudy,190,2012-10-09 12:50:00
4:20 PM,78.8,60.8,54,29.83,6.2,SSW,12.7,-,N/A,,Mostly Cloudy,210,2012-10-09 13:20:00
4:50 PM,77.0,62.6,61,29.83,6.2,SSW,10.4,-,N/A,,Mostly Cloudy,200,2012-10-09 13:50:00
5:20 PM,77.0,62.6,61,29.83,6.2,SSW,8.1,-,N/A,,Mostly Cloudy,210,2012-10-09 14:20:00
5:50 PM,75.2,62.6,65,29.83,6.2,SW,5.8,-,N/A,,Mostly Cloudy,230,2012-10-09 14:50:00
6:20 PM,73.4,64.4,73,29.83,6.2,SW,4.6,-,N/A,,Mostly Cloudy,230,2012-10-09 15:20:00
6:50 PM,73.4,64.4,73,29.83,6.2,WSW,1.2,-,N/A,,Mostly Cloudy,250,2012-10-09 15:50:00
7:20 PM,71.6,64.4,78,29.86,6.2,Calm,Calm,-,N/A,,Mostly Cloudy,0,2012-10-09 16:20:00
7:50 PM,71.6,64.4,78,29.86,6.2,NE,4.6,-,N/A,,Mostly Cloudy,40,2012-10-09 16:50:00
8:20 PM,71.6,64.4,78,29.86,6.2,NE,3.5,-,N/A,,Mostly Cloudy,50,2012-10-09 17:20:00
8:50 PM,69.8,62.6,78,29.86,6.2,NE,9.2,-,N/A,,Mostly Cloudy,40,2012-10-09 17:50:00
9:20 PM,69.8,59.0,68,29.86,6.2,NE,10.4,-,N/A,,Mostly Cloudy,50,2012-10-09 18:20:00
9:50 PM,69.8,59.0,68,29.86,6.2,ENE,6.9,-,N/A,Rain-Thunderstorm,Light Thunderstorms and Rain,60,2012-10-09 18:50:00
10:20 PM,69.8,57.2,64,29.86,6.2,NE,10.4,-,N/A,Rain-Thunderstorm,Light Thunderstorms and Rain,40,2012-10-09 19:20:00
10:50 PM,69.8,57.2,64,29.89,6.2,NE,9.2,-,N/A,,Mostly Cloudy,40,2012-10-09 19:50:00
11:20 PM,66.2,60.8,83,29.89,3.7,NW,16.1,28.8,N/A,Rain-Thunderstorm,Light Thunderstorms and Rain,320,2012-10-09 20:20:00
11:50 PM,64.4,57.2,77,29.89,5.0,NE,12.7,-,N/A,Rain-Thunderstorm,Light Thunderstorms and Rain,50,2012-10-09 20:50:00